Presure
164 149 124 148 148 150 115 95 117 136 106 118 124 92 108 136 96 119 122 107 132 129 110 114 149 122 121 120 114 131 124 111 128 106 114 132 138 125 128 140 138 96 112
96 143 88 89 90 129 97 99 127 83 147 123 125 118 160 97 88 134 89 141 119 119 128 151 153 100 124 118 115 130 126 130 134 123 125 125 131 143 152 134 137 78 131
104 140 88 87 94 155 146 130 144 92 85 93 89 107 144 100 107 99 98 140 116 116 116 126 131 123 109 136 133 130 111 116 104 111 146 158 144 137 129 141 132 144 144
108 87 89 158 118 97 130 132 157 129 124 128 110 94 115 117 103 117 129 144 97 135 161 152 138 137 124 148 128 144 144 169 134 148 152 146 155 131 144 108 139 140 128
94 93 93 99 107 133 150 94 138 95 95 99 101 119 102 142 133 86 122 120 154 144 158 148 141 138 147 126 142 147 142 124 126 129 160 155 141 189 139 139 115 135 144
92 94 97 87 93 93 154 87 160 85 156 133 101 107 134 102 109 136 104 107 103 104 95 117 123 146 146 127 141 143 109 117 125 136 155 153 144 138 76 145 137 144 134
103 90 89 102 104 97 95 103 97 93 91 96 127 89 106 120 109 105 126 126 153 129 141 124 140 138 123 116 126 141 128 126 130 149 141 144 148 146 155 138 144 147 146
112 97 100 94 94 120 93 114 149 153 94 120 94 138 108 106 104 104 107 124 122 117 114 123 123 128 138 125 125 131 132 135 155 150 151 76 145 153 154 144 145 145 149
111 113 109 138 120 100 102 143 138 109 107 160 128 103 94 93 118 117 110 111 125 137 133 125 125 131 126 129 133 89 146 131 138 101 157 152 146 145 146 147 151 154 146
161 108 130 121 105 102 99 96 133 96 105 129 145 144 145 132 121 117 151 151 120 137 143 141 136 133 134 143 134 137 143 142 85 147 109 142 146 138 139 142 136 143 138
168 174 133 140 131 146 131 116 114 127 135 102 103 143 135 135 125 146 142 142 140 133 129 141 136 137 138 101 144 145 124 143 145 144 122 145 143 155 151 146 137 133 140
166 142 163 132 148 130 146 135 139 146 127 109 136 148 129 130 134 145 148 155 144 140 144 142 111 83 130 158 156 130 97 147 153 150 132 142 138 139 132 138 136 137 142
167 156 161 149 149 131 135 158 96 153 153 135 137 83 145 136 126 143 135 159 155 88 77 119 83 152 150 148 148 140 153 150 150 156 138 137 133 134 131 139 135 145 147
126 109 85 127 77 160 148 152 128 157 124 125 124 163 158 116 88 144 144 107 136 123 101 150 83 79 122 84 90 102 156 150 151 150 151 139 136 137 148 144 139 159 155
77 154 163 73 137 94 186 175 100 123 82 89 133 133 74 96 77 128 75 116 81 81 146 111 77 129 111 102 144 148 149 145 148 147 150 144 154 154 153 143 155 152 156
148 154 105 150 122 77 151 80 159 136 116 99 124 75 136 96 106 78 98 146 124 129 126 143 144 145 141 134 150 153 156 158 156 157 140 161 147 141 157 167 159 145 167
159 158 165 159 154 169 168 156 150 77 150 71 74 77 142 149 74 75 76 156 92 137 138 139 137 149 154 147 143 146 159 147 160 161 162 154 166 161 169 156 172 173 181
147 162 166 154 157 149 138 146 70 73 72 119 92 96 96 125 150 152 149 142 147 144 144 149 146 159 158 164 166 155 154 161 155 161 157 160 159 176 172 173 170 179 191
160 181 167 155 159 169 161 170 154 127 184 176 169 157 165 164 161 157 158 153 158 159 157 158 160 154 153 149 145 157 162 158 166 163 168 179 187 182 167 181 182 177 151
177 173 163 159 153 152 154 157 168 168 172 184 150 163 173 168 160 156 155 159 160 161 162 164 161 160 168 164 162 154 162 158 170 165 166 173 180 186 151 179 147 136 157
195 187 189 180 179 204 184 158 186 159 202 192 175 170 193 135 152 131 147 144 158 153 157 156 159 167 167 138 168 167 164 167 169 145 175 179 172 175 135 158 170 173 143
175 176 178 187 198 182 168 164 154 142 131 125 171 174 174 169 162 161 162 164 161 162 161 170 163 159 157 172 166 126 159 152 145 124 118 127 187 146 181 173 178 128 177
163 160 174 195 182 186 180 204 197 168 171 159 159 126 139 170 176 165 168 159 166 152 163 159 162 175 167 153 152 167 159 155 167 165 126 158 177 153 169 131 182 176 151
167 166 166 168 185 199 216 204 178 176 185 179 183 133 128 175 181 146 178 175 165 165 164 174 120 120 168 172 172 123 165 167 118 182 171 172 177 179 125 139 178 134 185
156 170 166 158 163 180 199 231 200 103 180 167 169 181 173 176 165 142 204 182 152 193 183 179 172 174 176 166 172 169 183 178 146 175 167 174 110 184 157 119 124 186 185
177 167 165 161 157 162 176 189 196 228 177 166 169 192 188 174 181 172 169 211 185 157 161 180 180 182 181 165 194 181 141 177 182 147 161 176 171 178 180 186 189 166 188
Wind_Speed
42 43 35 41 40 38 18 10 31 33 16 25 27 6 16 34 11 24 24 20 26 26 25 25 30 29 31 30 31 33 33 32 33 27 35 36 39 40 40 41 41 30 32
17 44 14 12 16 40 14 11 40 10 34 31 31 24 28 13 13 32 15 33 27 28 30 32 30 22 33 33 33 35 35 36 38 37 38 40 40 40 40 41 42 23 44
25 42 18 17 21 43 43 40 40 14 11 15 15 18 39 16 23 17 18 34 27 29 29 31 34 34 29 35 36 38 34 34 30 26 38 41 43 42 42 43 43 45 46
28 18 19 46 32 23 44 41 39 43 38 39 26 15 23 26 21 28 33 37 21 35 34 34 36 36 32 36 37 38 39 40 43 39 40 42 42 36 43 35 44 46 45
28 26 24 25 29 38 46 19 45 17 17 21 18 29 22 40 37 20 31 31 39 37 34 35 36 38 37 39 38 38 39 38 44 45 40 42 44 39 44 45 41 47 51
30 31 33 22 24 23 46 21 43 20 41 49 23 26 42 24 27 41 25 28 27 29 25 37 40 37 38 42 41 40 38 40 46 46 40 41 44 48 23 47 48 51 47
42 30 27 35 36 31 28 31 25 23 21 22 45 21 31 35 31 29 38 37 42 38 37 41 42 42 42 40 45 44 41 47 48 41 40 45 44 46 45 50 50 52 55
48 38 40 32 31 41 29 36 44 49 23 40 23 53 31 31 31 30 33 40 40 39 38 43 44 45 45 46 47 48 48 50 44 45 46 21 48 46 47 49 51 53 56
53 50 49 56 47 37 37 53 48 33 34 46 42 33 25 25 42 43 37 38 44 48 48 45 46 49 47 50 50 25 51 52 52 32 46 47 47 50 50 51 52 53 53
65 45 58 53 43 41 39 36 52 32 39 42 56 57 43 52 47 43 50 51 45 52 51 51 53 52 53 53 53 56 55 53 30 52 37 43 51 53 55 55 55 54 55
63 63 63 65 58 61 56 49 41 51 52 39 39 57 56 54 43 53 53 54 53 51 51 54 55 56 51 33 55 46 46 51 54 54 45 53 54 52 54 56 55 53 59
69 62 71 60 70 58 61 55 57 59 54 45 52 56 55 56 52 56 55 53 54 50 55 56 37 24 49 52 52 47 33 55 52 54 53 57 56 59 57 61 60 61 61
67 78 67 73 71 59 59 63 29 62 59 58 58 17 60 61 53 59 46 54 55 22 18 40 20 57 56 57 57 47 53 56 57 55 59 57 59 61 57 64 61 65 65
54 50 26 56 20 66 64 65 56 63 55 57 57 56 58 45 23 61 58 35 54 53 31 51 25 30 49 40 42 38 55 59 59 59 57 61 63 65 65 67 67 68 67
28 89 63 21 60 32 69 75 37 47 25 26 57 58 13 24 16 41 17 39 30 30 57 43 29 51 50 48 60 61 62 64 65 64 62 63 64 66 67 67 70 68 69
80 89 42 70 53 24 66 29 71 64 46 36 55 20 59 34 40 25 37 55 48 51 49 59 60 61 61 60 64 64 65 66 67 67 64 67 66 68 71 74 71 67 81
87 88 91 85 68 81 80 73 60 28 70 19 22 29 64 65 21 26 30 64 38 64 64 63 63 64 67 63 65 66 68 65 69 68 69 66 74 72 77 69 81 83 92
79 93 93 82 77 66 65 68 22 25 28 57 43 47 46 59 67 68 67 66 69 69 69 69 67 71 69 72 72 68 67 71 68 71 68 73 72 87 83 83 80 90 90
85 99 94 79 80 92 87 91 73 55 80 82 83 76 79 78 75 73 74 72 73 74 75 74 73 70 68 65 63 71 75 72 80 78 82 87 87 88 75 87 91 83 69
95 94 85 75 73 78 78 76 85 83 86 80 69 79 85 80 79 77 76 78 78 79 79 80 77 76 78 80 77 68 78 71 84 80 79 86 87 92 71 83 70 62 72
103 102 102 95 94 92 94 81 88 78 81 81 89 87 85 64 73 59 66 65 78 73 77 75 75 81 81 63 82 82 83 86 87 65 91 90 81 83 66 72 81 83 62
93 94 93 101 108 96 91 87 76 68 63 62 87 89 88 88 83 83 88 88 85 86 81 87 82 75 74 86 82 62 77 68 73 58 46 60 95 63 91 85 88 52 84
89 87 92 101 92 93 93 93 93 94 93 78 82 69 70 87 94 92 95 82 90 72 81 75 77 89 85 70 70 87 80 83 86 83 62 81 87 75 79 64 88 82 69
90 90 91 87 89 91 95 98 91 95 96 94 99 73 69 93 95 74 99 99 88 83 80 90 63 61 87 90 91 64 79 83 65 99 94 93 90 89 54 65 87 63 92
81 91 90 84 85 88 93 93 97 52 96 89 89 97 95 97 84 71 105 99 76 105 96 95 88 91 94 83 90 84 96 92 74 88 86 89 52 89 76 58 63 96 97
95 92 91 87 84 88 90 90 93 97 95 89 91 101 103 92 94 90 89 99 98 80 78 94 90 94 96 87 105 98 72 92 95 76 82 93 88 90 95 99 101 83 99
Wind_Direction
241 243 246 243 243 243 236 244 262 258 265 271 273 260 280 275 299 276 291 310 289 293 308 305 292 304 305 309 311 309 311 317 315 321 319 313 315 319 319 316 316 324 314
249 240 221 221 226 249 237 253 257 241 244 272 268 278 257 305 276 274 300 278 295 295 298 291 294 313 301 306 308 307 310 312 311 315 315 315 315 311 307 316 316 320 319
237 243 226 228 234 242 243 254 250 252 256 261 263 280 261 268 296 304 294 281 297 300 303 300 291 299 305 303 306 308 309 316 314 314 305 303 308 313 316 313 317 311 311
237 229 233 242 245 238 250 255 246 259 265 266 265 276 276 276 294 287 286 278 303 288 279 287 292 296 303 299 308 303 303 307 310 305 306 307 305 310 309 318 314 314 318
243 244 242 252 243 243 245 257 254 252 260 256 281 272 275 266 279 287 290 292 276 285 280 286 291 297 295 308 303 302 303 312 312 311 308 306 308 300 309 311 314 316 313
239 242 245 235 242 248 244 239 249 247 249 261 255 282 269 289 293 281 291 292 289 290 290 301 302 293 294 307 300 300 308 309 310 309 306 306 305 308 308 308 311 309 314
244 238 241 245 250 254 254 261 259 245 255 265 261 260 286 281 290 291 288 291 276 294 288 299 294 297 304 305 306 302 305 307 308 307 305 304 304 305 308 309 309 307 308
242 242 242 245 246 252 249 254 249 249 256 258 260 262 281 285 285 286 292 290 292 295 297 296 298 299 296 301 303 303 304 305 305 306 304 307 305 306 304 305 305 306 304
245 245 245 248 250 247 248 250 252 251 260 250 261 274 268 267 284 287 287 290 287 286 288 293 296 296 299 299 299 310 302 304 305 310 305 305 306 306 306 305 304 304 310
234 248 247 248 247 246 247 251 256 257 260 255 257 260 259 274 281 283 273 275 290 286 285 288 292 294 295 294 298 300 301 301 313 303 301 302 304 307 307 306 311 310 314
235 242 246 247 249 249 253 256 250 261 258 262 264 262 269 272 273 271 274 276 279 286 292 287 291 292 291 298 294 293 298 297 297 298 298 299 301 298 299 302 311 316 312
237 245 242 248 245 250 248 252 255 252 262 263 259 258 273 274 273 270 271 270 279 281 280 284 293 308 291 287 289 295 297 292 292 292 304 300 305 305 310 309 312 312 309
238 240 246 240 244 254 255 248 253 253 253 261 261 266 260 269 271 271 270 270 272 289 308 284 289 285 288 290 291 290 289 290 291 289 300 303 307 307 307 305 311 304 303
232 241 239 243 253 245 248 249 260 252 263 266 269 261 259 269 280 268 269 280 276 289 289 280 291 303 290 305 303 299 287 288 287 290 292 301 302 302 299 301 305 306 305
232 243 242 243 250 256 243 247 263 257 270 269 262 265 285 265 298 268 285 272 299 298 278 290 293 290 296 297 287 287 287 290 292 295 295 297 296 298 298 302 304 305 308
240 245 246 251 251 249 252 262 248 256 258 260 263 281 262 268 277 291 277 270 281 280 282 280 282 282 285 290 287 288 290 291 294 295 299 299 298 300 301 304 304 306 309
235 241 241 246 252 250 249 253 255 265 255 252 260 277 265 265 266 280 285 270 288 281 282 281 283 282 283 285 287 288 290 292 294 297 300 298 303 302 302 300 305 309 309
239 237 239 248 250 253 254 253 251 256 263 260 269 271 271 268 269 270 271 273 273 276 279 279 282 282 284 285 285 288 292 293 295 298 301 301 299 302 302 304 308 307 307
242 234 235 249 247 246 251 252 258 260 255 254 257 265 260 263 266 268 271 273 273 273 275 278 279 282 284 287 289 292 293 295 297 301 302 303 303 300 304 305 308 308 309
236 240 246 250 248 255 258 257 254 257 257 256 263 264 262 265 267 269 271 272 273 274 275 276 280 282 282 285 290 295 295 295 296 299 301 302 302 301 303 306 306 312 308
234 237 241 246 246 246 248 257 253 261 246 252 259 261 255 265 268 272 273 274 275 278 280 281 281 281 282 288 287 291 294 295 296 293 301 302 302 302 303 303 304 304 303
235 238 239 242 245 248 251 257 257 260 259 265 262 261 260 262 267 270 270 271 273 273 277 274 280 287 290 284 289 292 294 291 292 296 295 301 298 299 301 302 302 306 305
240 246 243 242 244 246 249 248 249 258 260 258 260 266 265 263 263 266 266 271 269 275 277 281 283 279 284 288 288 290 291 292 297 299 297 294 298 299 299 295 301 302 304
239 241 246 246 245 247 246 249 252 255 258 261 260 262 270 264 264 269 264 266 273 276 280 276 283 284 283 284 286 287 288 291 295 291 295 296 296 298 288 290 303 300 308
248 242 245 251 250 248 250 247 247 258 254 258 260 260 262 265 266 270 262 268 275 268 273 277 282 283 283 285 285 289 286 287 288 287 287 291 289 299 295 293 296 305 306
236 245 248 251 254 252 250 251 252 248 254 259 261 259 262 266 266 266 269 267 271 274 275 278 278 280 281 281 280 286 287 288 289 288 292 296 299 300 300 300 300 303 301